N9GF Weather Reports


Display with metric or nautical units.
time (UTC)temp
F
wind
direction
speed
MPH
gust
MPH
rain 1hr
in
rain 24hr
in
rain mn
in
humidity
%
barometer
mb
20260509021553 61 286 0.0 0.0 0.00 0.00 0.00 51 1002.7
20260509014545 62 286 0.0 0.0 0.00 0.00 0.00 50 1002.7
20260509013040 63 286 0.0 0.0 0.00 0.00 0.00 49 1002.6
20260509011535 63 286 0.0 0.0 0.00 0.00 0.00 48 1002.6
20260509010036 64 286 0.0 0.0 0.00 0.00 0.00 47 1002.4
20260509004526 64 292 1.0 0.0 0.00 0.00 0.00 46 1002.6
20260509003023 65 238 0.0 0.0 0.00 0.00 0.00 46 1002.6
20260509001518 65 245 0.0 0.0 0.00 0.00 0.00 46 1002.6
20260509000013 66 240 0.0 0.0 0.00 0.00 0.00 45 1002.7
20260508234510 66 317 0.0 0.0 0.00 0.00 0.00 44 1002.7
20260508233005 66 234 0.0 0.0 0.00 0.00 0.00 45 1002.8
20260508231609 67 241 0.0 0.0 0.00 0.00 0.00 44 1002.7
20260508230056 67 335 1.0 0.0 0.00 0.00 0.00 44 1002.8
20260508224555 67 331 1.0 0.0 0.00 0.00 0.00 43 1002.8
20260508223048 66 234 1.0 0.0 0.00 0.00 0.00 46 1002.9
20260508221544 66 230 0.0 0.0 0.00 0.00 0.00 45 1003.0
20260508220046 66 334 1.0 0.0 0.00 0.00 0.00 45 1003.2
20260508214542 66 296 1.0 0.0 0.00 0.00 0.00 44 1003.4
20260508213032 67 240 1.0 0.0 0.00 0.00 0.00 42 1003.3
20260508211526 68 278 0.0 0.0 0.00 0.00 0.00 41 1003.3
20260508210031 68 274 0.0 0.0 0.00 0.00 0.00 39 1003.5
20260508204518 69 231 1.0 0.0 0.00 0.00 0.00 39 1003.5
20260508203013 69 329 0.0 0.0 0.00 0.00 0.00 38 1003.8
20260508201510 71 331 0.0 0.0 0.00 0.00 0.00 37 1004.0
20260508200004 71 329 1.0 0.0 0.00 0.00 0.00 40 1004.2
20260508194608 70 310 0.0 0.0 0.00 0.00 0.00 39 1004.4
20260508193119 70 236 0.0 0.0 0.00 0.00 0.00 40 1004.7
20260508191603 69 336 1.0 0.0 0.00 0.00 0.00 39 1004.8
20260508190107 67 312 1.0 0.0 0.00 0.00 0.00 42 1004.9
20260508184543 67 234 0.0 0.0 0.00 0.00 0.00 43 1005.2
20260508183042 66 308 0.0 0.0 0.00 0.00 0.00 44 1005.5
20260508181541 65 246 1.0 0.0 0.00 0.00 0.00 43 1005.7
20260508180029 65 248 1.0 0.0 0.00 0.00 0.00 43 1005.7
20260508174525 65 328 0.0 0.0 0.00 0.00 0.00 43 1006.1
20260508173020 65 323 1.0 0.0 0.00 0.00 0.00 43 1006.3
20260508171518 65 238 1.0 0.0 0.00 0.00 0.00 43 1006.4
20260508170012 64 303 0.0 0.0 0.00 0.00 0.00 43 1006.7
20260508164508 64 300 0.0 0.0 0.00 0.00 0.00 44 1007.0
20260508163003 64 259 0.0 0.0 0.00 0.00 0.00 43 1007.2
20260508161600 65 261 1.0 0.0 0.00 0.00 0.00 42 1007.4
20260508160054 64 236 0.0 0.0 0.00 0.00 0.00 42 1007.3
20260508154553 63 238 0.0 0.0 0.00 0.00 0.00 39 1007.6
20260508153059 61 238 0.0 0.0 0.00 0.00 0.00 38 1007.9
20260508151541 59 236 0.0 0.0 0.00 0.00 0.00 36 1007.9
20260508150036 57 236 0.0 0.0 0.00 0.00 0.00 32 1008.0
20260508144532 55 257 0.0 0.0 0.00 0.00 0.00 6 1008.2
20260508143045 54 258 0.0 0.0 0.00 0.00 0.00 100 1008.2
20260508141529 53 258 0.0 0.0 0.00 0.00 0.00 100 1008.3
20260508140019 52 290 0.0 0.0 0.00 0.00 0.00 100 1008.4
20260508134516 51 292 0.0 0.0 0.00 0.00 0.00 100 1008.4
20260508133011 49 292 0.0 0.0 0.00 0.00 0.00 100 1008.2
20260508131507 48 292 0.0 0.0 0.00 0.00 0.00 100 1008.2
20260508130003 47 292 0.0 0.0 0.00 0.00 0.00 100 1008.3
20260508124558 46 292 0.0 0.0 0.00 0.00 0.00 100 1008.2
20260508123054 45 292 0.0 0.0 0.00 0.00 0.00 100 1008.5
20260508121549 45 292 0.0 0.0 0.00 0.00 0.00 100 1008.3
20260508120050 44 292 0.0 0.0 0.00 0.00 0.00 100 1008.4
20260508114540 43 292 0.0 0.0 0.00 0.00 0.00 100 1008.4
20260508113038 42 292 0.0 0.0 0.00 0.00 0.00 100 1008.1
20260508111531 42 292 0.0 0.0 0.00 0.00 0.00 100 1008.0
20260508110032 41 292 0.0 0.0 0.00 0.00 0.00 100 1007.9
20260508104522 41 292 0.0 0.0 0.00 0.00 0.00 100 1008.1
20260508103036 41 292 0.0 0.0 0.00 0.00 0.00 100 1008.0
20260508101516 40 292 0.0 0.0 0.00 0.00 0.00 100 1008.2
20260508100010 41 292 0.0 0.0 0.00 0.00 0.00 100 1008.1
20260508094506 41 292 0.0 0.0 0.00 0.00 0.00 100 1008.2
20260508093002 41 292 0.0 0.0 0.00 0.00 0.00 100 1008.3
20260508091611 42 292 0.0 0.0 0.00 0.00 0.00 100 1008.2
20260508090053 42 292 0.0 0.0 0.00 0.00 0.00 100 1008.3
20260508084549 42 292 0.0 0.0 0.00 0.00 0.00 100 1008.4
20260508083046 42 292 0.0 0.0 0.00 0.00 0.00 100 1008.5
20260508081556 42 292 0.0 0.0 0.00 0.00 0.00 100 1008.6
20260508080037 43 292 0.0 0.0 0.00 0.00 0.00 100 1008.6
20260508074535 43 292 0.0 0.0 0.00 0.00 0.00 100 1008.8
20260508073034 44 292 0.0 0.0 0.00 0.00 0.00 100 1008.7
20260508071532 44 292 0.0 0.0 0.00 0.00 0.00 100 1008.9
20260508070019 44 292 0.0 0.0 0.00 0.00 0.00 100 1008.9
20260508064514 45 292 0.0 0.0 0.00 0.00 0.00 100 1008.8
20260508063011 45 292 0.0 0.0 0.00 0.00 0.00 100 1009.0
20260508061507 45 292 0.0 0.0 0.00 0.00 0.00 100 1008.8
20260508060001 46 292 0.0 0.0 0.00 0.00 0.00 100 1008.8
20260508054640 46 292 0.0 0.0 0.00 0.00 0.00 100 1008.8
20260508053055 46 292 0.0 0.0 0.00 0.00 0.00 100 1008.7
20260508051549 47 292 0.0 0.0 0.00 0.00 0.00 100 1008.7
20260508050043 47 292 0.0 0.0 0.00 0.00 0.02 100 1008.6
20260508043037 47 292 0.0 0.0 0.00 0.00 0.02 100 1008.5
20260508041531 47 292 0.0 0.0 0.00 0.00 0.02 100 1008.4
20260508040032 47 292 0.0 0.0 0.00 0.00 0.02 100 1008.3
20260508034533 47 292 0.0 0.0 0.00 0.00 0.02 100 1008.0
20260508033028 47 292 0.0 0.0 0.00 0.00 0.02 100 1008.0
20260508031515 48 292 0.0 0.0 0.00 0.00 0.02 100 1008.1
20260508030009 48 292 0.0 0.0 0.00 0.00 0.02 2 1007.9
20260508024505 49 292 0.0 0.0 0.00 0.00 0.02 5 1007.7
20260508023000 49 292 0.0 0.0 0.00 0.00 0.02 11 1007.7